Regional Weather Roundup
Issued by NWS Sioux Falls, SD

Home | Current Version | Previous Version | Graphics & Text | Print | Product List | Glossary Off
Versions: 1 2 3 4 5 6 7 8 9 10 11 12 13 14 15 16 17 18 19 20 21 22 23 24 25 26 27 28 29 30 31 32 33 34 35 36 37 38 39 40 41 42 43 44 45 46 47 48 49 50

000
ASUS43 KFSD 210402
RWRFSD

WEATHER ROUNDUP FOR SE SOUTH DAKOTA/SW MINNESOTA/NW IOWA
NATIONAL WEATHER SERVICE SIOUX FALLS SD
1100 PM CDT FRI APR 20 2018

NOTE: "FAIR" INDICATES FEW OR NO CLOUDS BELOW 12,000 FEET WITH NO
SIGNIFICANT WEATHER AND OR OBSTRUCTIONS TO VISIBILITY.


SDZ038>040-050-052>070-210500-
SOUTHEAST SOUTH DAKOTA

CITY           SKY/WX    TMP DP  RH WIND       PRES   REMARKS
BROOKINGS      CLOUDY    39  33  79 SE8       30.39F
CHAMBERLAIN    DRIZZLE   43  43 100 E5        30.34F
HURON          CLOUDY    42  37  82 SE5       30.36F
MADISON        CLOUDY    37  37 100 SE3       30.38F
MITCHELL       CLOUDY    41  37  86 S8        30.38F
SIOUX FALLS    CLOUDY    41  34  76 E5        30.39S
WINNER         FAIR      40  35  83 E6        30.31F
YANKTON        LGT RAIN  43  38  82 NE8       30.37F
$$

MNZ071-072-080-081-089-090-097-098-210500-
SOUTHWEST MINNESOTA

CITY           SKY/WX    TMP DP  RH WIND       PRES   REMARKS
FAIRMONT       CLOUDY    38  28  67 CALM      30.44S
JACKSON        CLOUDY    36  30  80 E5        30.42F
LUVERNE        CLOUDY    36  32  87 CALM      30.40F
MARSHALL       MOCLDY    36  31  82 SE3       30.42F
MONTEVIDEO     CLOUDY    37  28  70 SW6       30.43S
PIPESTONE      CLOUDY   N/A N/A N/A SE7       30.38F
REDWOOD FALLS  CLOUDY    37  31  78 S5        30.43F
TRACY          CLOUDY    38  31  77 S6        30.41F
WINDOM         CLOUDY    36  19  51 CALM      30.42F
WORTHINGTON    CLOUDY    35  30  82 SE7       30.40F WCI  29
$$

IAZ001>003-012>014-020>022-031-032-NEZ013-014-SDZ071-210500-
NORTHWEST IOWA

CITY           SKY/WX    TMP DP  RH WIND       PRES   REMARKS
CHEROKEE       CLOUDY    39  33  79 NE7       30.38F
DENISON        CLOUDY    46  39  76 E14G21    30.34F
ESTHERVILLE    CLOUDY    34  29  82 CALM      30.42F
LE MARS        CLOUDY    43  34  70 NE15G23   30.35F
ORANGE CITY    CLOUDY    41  37  87 E7        30.37F
SHELDON        CLOUDY    37  36  93 E8        30.37F
SIOUX CITY     CLOUDY    45  34  65 E12       30.33F
SPENCER        CLOUDY    37  31  78 E8        30.40F
STORM LAKE     CLOUDY    37  32  81 NE13      30.37F
$$

ABBREVIATIONS USED IN REMARKS
   TC - TEMPERATURE IN CELSIUS
  WCI - WIND CHILL INDEX
   HX - HEAT INDEX
  VSB - VISIBILITY





USA.gov is the U.S. government's official web portal to all federal, state and local government web resources and services.